Overview Statistics Trail Chart Weather Telemetry Raw packets
 

This is the latest recevied weather packets stored in our database for station/object KC0OOO-WX. If no packets are shown the sender has not sent any weather packets the latest 10 day(s).

<< 33 34 35 36 37 38 39 >>
Time Temp. Humidity Pressure Rain* Wind** Luminosity Snow
1777249795 6.11° C 79% 1009.8 hPa 0.25 mm - - -
1777249195 6.67° C 73% 1009.8 hPa 0 mm - - -
1777248595 7.22° C 68% 1010.2 hPa 0 mm - - -
1777247995 8.89° C 62% 1010.2 hPa 0 mm - - -
1777247395 9.44° C 62% 1009.8 hPa 0 mm - - -
1777246765 8.33° C 61% 1009.8 hPa 0 mm - - -
1777246165 8.89° C 61% 1009.8 hPa 0 mm - - -
1777245565 8.33° C 63% 1009.8 hPa 0 mm - - -
1777244965 8.33° C 66% 1010.2 hPa 0 mm - - -
1777244365 7.22° C 68% 1010.2 hPa 0 mm - - -
1777243765 6.67° C 75% 1009.5 hPa 0 mm - - -
1777243165 6.67° C 74% 1009.5 hPa 0 mm - - -
1777242535 7.78° C 66% 1009.5 hPa 0 mm - - -
1777241905 7.78° C 66% 1009.5 hPa 0 mm - - -
1777241305 7.78° C 66% 1009.8 hPa 0 mm - - -
1777240705 8.89° C 67% 1009.8 hPa 0 mm - - -
1777240105 7.78° C 68% 1009.1 hPa 0 mm - - -
1777239505 8.89° C 64% 1009.1 hPa 0 mm - - -
1777238905 9.44° C 61% 1009.5 hPa 0 mm - - -
1777238305 9.44° C 57% 1009.5 hPa 0 mm - - -
1777237705 9.44° C 63% 1009.5 hPa 0 mm - - -
1777237105 8.89° C 62% 1009.5 hPa 0 mm - - -
1777236505 8.33° C 65% 1009.5 hPa 0 mm - - -
1777235907 9.44° C 59% 1009.5 hPa 0 mm - - -
1777235305 11.11° C 51% 1010.2 hPa 0.51 mm - - -

* Rain latest hour (hover to see other rain measurements)
** Current wind speed in m/s (hover to see current wind gust speed)